Auburn, CA

12:07 AM PST on December 08, 2019 (GMT -0800)
Auburn Municipal

Weather History for KAUN - November, 2019

Change the Weather History Date:

Saturday, November 16, 2019

  Actual Average Record
Temperature  
Mean Temperature 55 °F -  
Max Temperature 68 °F 60 °F 138 °F (2014)
Min Temperature 42 °F 42 °F 30 °F (1958)
Degree Days  
Heating Degree Days 10    
Growing Degree Days 5 (Base 50)    
Moisture  
Dew Point 43 °F    
Average Humidity 67    
Maximum Humidity 100    
Minimum Humidity 46    
Precipitation  
Precipitation 0.00 in - - ()
Sea Level Pressure  
Sea Level Pressure 30.13 in    
Wind  
Wind Speed 1 mph ()    
Max Wind Speed 8 mph    
Max Gust Speed -    
Visibility 9.9 miles    
Events      
Averages and records for this station are not official NWS values.
T = Trace of Precipitation, MM = Missing Value Source: Averaged Metar Reports

Daily Weather History Graph

Daily Weather History Graph

Search for Another Location

Airport or City:

Astronomy

Nov. 16, 2019 Rise Set
Actual Time 6:48 AM PST 4:49 PM PST
Civil Twilight 6:19 AM PST 5:18 PM PST
Nautical Twilight 5:47 AM PST 5:50 PM PST
Astronomical Twilight 5:15 AM PST 6:22 PM PST
Moon 8:28 PM PST (11/16) 10:45 AM PST (11/16)
Length of Visible Light 10h 58m
Length of Day
10h 01m
Waning Gibbous, 81% of the Moon is Illuminated
Nov 16
Waning Gibbous
Nov 19
Last Quarter
Nov 26
New
Dec 3
First Quarter
Dec 11
Full

Hourly Weather History & Observations

Time (PST) Temp. Windchill Dew Point Humidity Pressure Visibility Wind Dir Wind Speed Gust Speed Precip Events Conditions
12:15 AM 42.8 °F - 42.8 °F 100% 30.13 in 10.0 mi Calm Calm - N/A   Clear
12:35 AM 42.8 °F - 41.0 °F 93% 30.13 in 10.0 mi Calm Calm - N/A   Clear
12:55 AM 42.8 °F - 41.0 °F 93% 30.13 in 10.0 mi Calm Calm - N/A   Clear
1:15 AM 42.8 °F - 41.0 °F 93% 30.14 in 10.0 mi Calm Calm - N/A   Clear
1:30 AM 44.6 °F - 41.0 °F 87% 30.14 in 10.0 mi Calm Calm - N/A   Clear
1:55 AM 46.4 °F 45.2 °F 41.0 °F 81% 30.13 in 10.0 mi East 3.5 mph - N/A   Clear
2:15 AM 48.2 °F - 41.0 °F 76% 30.13 in 10.0 mi ESE 5.8 mph - N/A   Clear
2:35 AM 50.0 °F - 41.0 °F 71% 30.13 in 10.0 mi East 6.9 mph - N/A   Clear
2:55 AM 50.0 °F - 39.2 °F 66% 30.13 in 10.0 mi Calm Calm - N/A   Clear
3:15 AM 48.2 °F - 39.2 °F 71% 30.13 in 10.0 mi Calm Calm - N/A   Clear
3:35 AM 50.0 °F - 37.4 °F 62% 30.13 in 10.0 mi Calm Calm - N/A   Clear
3:55 AM 50.0 °F - 37.4 °F 62% 30.12 in 10.0 mi East 5.8 mph - N/A   Clear
4:15 AM 50.0 °F - 37.4 °F 62% 30.13 in 10.0 mi Calm Calm - N/A   Clear
4:35 AM 50.0 °F - 35.6 °F 58% 30.13 in 10.0 mi East 6.9 mph - N/A   Clear
4:55 AM 48.2 °F - 35.6 °F 62% 30.13 in 10.0 mi East 8.1 mph - N/A   Clear
5:15 AM 48.2 °F - 35.6 °F 62% 30.13 in 10.0 mi Calm Calm - N/A   Clear
5:35 AM 48.2 °F - 37.4 °F 66% 30.14 in 10.0 mi East 6.9 mph - N/A   Clear
5:55 AM 50.0 °F - 35.6 °F 58% 30.13 in 10.0 mi East 5.8 mph - N/A   Clear
6:15 AM 50.0 °F - 35.6 °F 58% 30.14 in 10.0 mi Calm Calm - N/A   Clear
6:35 AM 50.0 °F - 39.2 °F 66% 30.15 in 10.0 mi Calm Calm - N/A   Clear
6:55 AM 46.4 °F - 37.4 °F 71% 30.15 in 10.0 mi Calm Calm - N/A   Clear
7:15 AM 48.2 °F - 35.6 °F 62% 30.15 in 10.0 mi Calm Calm - N/A   Clear
7:35 AM 50.0 °F - 37.4 °F 62% 30.16 in 10.0 mi Calm Calm - N/A   Clear
7:55 AM 53.6 °F - 41.0 °F 62% 30.17 in 10.0 mi Calm Calm - N/A   Clear
8:15 AM 53.6 °F - 41.0 °F 62% 30.17 in 10.0 mi Calm Calm - N/A   Clear
8:35 AM 55.4 °F - 41.0 °F 58% 30.18 in 10.0 mi Calm Calm - N/A   Clear
8:55 AM 57.2 °F - 44.6 °F 63% 30.18 in 10.0 mi Calm Calm - N/A   Clear
9:15 AM 59.0 °F - 46.4 °F 63% 30.18 in 10.0 mi Calm Calm - N/A   Clear
9:35 AM 59.0 °F - 46.4 °F 63% 30.18 in 10.0 mi Calm Calm - N/A   Clear
9:55 AM 60.8 °F - 46.4 °F 59% 30.17 in 10.0 mi Calm Calm - N/A   Clear
10:15 AM 62.6 °F - 44.6 °F 52% 30.17 in 10.0 mi Calm Calm - N/A   Clear
10:55 AM 64.4 °F - 46.4 °F 52% 30.16 in 10.0 mi Calm Calm - N/A   Clear
11:15 AM 64.4 °F - 44.6 °F 49% 30.16 in 10.0 mi Calm Calm - N/A   Clear
11:35 AM 64.4 °F - 46.4 °F 52% 30.15 in 10.0 mi Calm Calm - N/A   Clear
11:55 AM 66.2 °F - 44.6 °F 46% 30.13 in 10.0 mi Calm Calm - N/A   Clear
12:15 PM 66.2 °F - 46.4 °F 49% 30.13 in 10.0 mi Calm Calm - N/A   Clear
12:35 PM 66.2 °F - 46.4 °F 49% 30.12 in 9.0 mi Calm Calm - N/A   Clear
12:55 PM 66.2 °F - 46.4 °F 49% 30.11 in 10.0 mi Calm Calm - N/A   Clear
1:15 PM 66.2 °F - 46.4 °F 49% 30.10 in 10.0 mi Calm Calm - N/A   Clear
1:35 PM 68.0 °F - 46.4 °F 46% 30.09 in 10.0 mi Calm Calm - N/A   Clear
1:55 PM 68.0 °F - 46.4 °F 46% 30.09 in 10.0 mi West 4.6 mph - N/A   Clear
2:15 PM 66.2 °F - 46.4 °F 49% 30.10 in 10.0 mi WNW 4.6 mph - N/A   Clear
2:35 PM 66.2 °F - 46.4 °F 49% 30.09 in 10.0 mi Calm Calm - N/A   Clear
2:55 PM 64.4 °F - 46.4 °F 52% 30.09 in 10.0 mi Calm Calm - N/A   Clear
3:35 PM 62.6 °F - 46.4 °F 55% 30.09 in 10.0 mi Calm Calm - N/A   Clear
3:55 PM 62.6 °F - 46.4 °F 55% 30.10 in 10.0 mi Calm Calm - N/A   Clear
4:15 PM 60.8 °F - 46.4 °F 59% 30.10 in 10.0 mi Calm Calm - N/A   Clear
4:35 PM 60.8 °F - 46.4 °F 59% 30.10 in 10.0 mi Calm Calm - N/A   Clear
4:55 PM 57.2 °F - 44.6 °F 63% 30.10 in 9.0 mi Calm Calm - N/A   Clear
5:15 PM 55.4 °F - 46.4 °F 72% 30.10 in 10.0 mi Calm Calm - N/A   Clear
5:35 PM 51.8 °F - 42.8 °F 71% 30.11 in 10.0 mi Calm Calm - N/A   Clear
5:55 PM 51.8 °F - 44.6 °F 76% 30.11 in 10.0 mi Calm Calm - N/A   Clear
6:15 PM 51.8 °F - 44.6 °F 76% 30.11 in 10.0 mi Calm Calm - N/A   Clear
6:35 PM 50.0 °F - 42.8 °F 76% 30.11 in 10.0 mi Calm Calm - N/A   Clear
6:55 PM 51.8 °F - 46.4 °F 82% 30.11 in 10.0 mi Calm Calm - N/A   Clear
7:15 PM 48.2 °F - 44.6 °F 87% 30.12 in 10.0 mi Calm Calm - N/A   Clear
7:55 PM 51.8 °F - 46.4 °F 82% 30.12 in 10.0 mi Calm Calm - N/A   Clear
8:15 PM 50.0 °F - 46.4 °F 87% 30.13 in 10.0 mi Calm Calm - N/A   Clear
8:35 PM 53.6 °F - 48.2 °F 82% 30.13 in 10.0 mi Calm Calm - N/A   Clear
8:55 PM 53.6 °F - 46.4 °F 77% 30.13 in 9.0 mi Calm Calm - N/A   Clear
9:15 PM 55.4 °F - 46.4 °F 72% 30.14 in 9.0 mi Calm Calm - N/A   Clear
9:35 PM 53.6 °F - 46.4 °F 77% 30.14 in 10.0 mi Calm Calm - N/A   Clear
9:55 PM 53.6 °F - 46.4 °F 77% 30.14 in 6.0 mi Calm Calm - N/A   Haze
10:15 PM 53.6 °F - 46.4 °F 77% 30.14 in 10.0 mi East 6.9 mph - N/A   Clear
10:35 PM 53.6 °F - 46.4 °F 77% 30.14 in 10.0 mi Calm Calm - N/A   Clear
10:55 PM 53.6 °F - 46.4 °F 77% 30.14 in 10.0 mi Calm Calm - N/A   Clear
11:15 PM 53.6 °F - 46.4 °F 77% 30.13 in 10.0 mi Calm Calm - N/A   Clear
11:35 PM 55.4 °F - 46.4 °F 72% 30.13 in 10.0 mi ESE 6.9 mph - N/A   Clear
11:55 PM 53.6 °F - 46.4 °F 77% 30.14 in 10.0 mi Calm Calm - N/A   Clear